Weather in Mityagino

Russia / Lipetsk Oblast     53°12′31″N   39°44′02″E
temp.,
°C
wind,
m/s
gust,
m/s
humid.,
%
clouds,
%
prec.,
mm/h
press.,
hPa
HPBL,
m
13 april, tue
tue1300:00+11se4117477 0.0 1027199
03:00+9se4127878 0.0 1027184
06:00+8se4107373 0.0 1027168
09:00+13se595115 0.0 1027334
12:00+19se69345 0.0 10261048
15:00+21sse7112562 0.0 10242136
18:00+19se611365 0.0 1023365
21:00+15se6144594 0.0 1023337
14 april, wed
wed1400:00+12se512545 0.0 1023275
03:00+10se49653 0.0 1023149
06:00+8se367093 0.0 1022110
09:00+13se5853100 0.0 1021322
12:00+18se6833100 0.0 1020939
15:00+20se68260 0.0 10181984
18:00+18se473464 0.0 1017197
21:00+15se3644100 0.0 1018106
15 april, thu
thu1500:00+11se3657100 0.0 1017101
03:00+10ese3360100 0.0 101732
06:00+10ese3564100 0.0 101684
09:00+12ese2459100 0.0 1016202
12:00+16wnw224793 0.0 1015762
15:00+18e333962 0.0 10141405
18:00+18ese34425 0.0 1013208
21:00+13nw357293 0.0 101485
16 april, fri
fri1600:00+12n2272100 0.0 101441
03:00+12ene226799 0.0 101421
06:00+12ese2269100 0.0 101529
09:00+15ese235864 0.0 1015432
12:00+18ese454869 0.2 10161544
15:00+18se464499 1.0 10161878
18:00+14e357686 1.6 1016197
21:00+12sse1182100 4.8 101851
17 april, sat
sat1700:00+11ene358781 0.5 1018165
03:00+11ne348967 0.5 101981
06:00+10ene2488100 0.1 101978
09:00+13ene71063100 0.0 1018463
12:00+17e8105262 0.1 10201405
15:00+19e8114612 0.4 10202259
18:00+16e9135789 0.6 10211224
21:00+12ene7136346 1.2 1023590